Flag for Germany Weather past 2 weeks in Pforzheim, Baden-Württemberg, Germany

Now
32 °F

Light snow. Ice fog.


Feels Like: 26 °F
Forecast: 6 / 30 °F
Wind: 6 mph from Northwest

Location: Stuttgart-Echterdingen

Current Time: Dec 28, 2014 at 2:43:37 AM

Latest Report: Dec 28, 2014 at 2:20 AM


Visibility: 2 mi

Pressure: 29.50 "Hg

Humidity: 93%

Dew point: 30 °F

Location of PforzheimLocation

Historic Weather in Pforzheim — Graph

°F

Pforzheim temperature yesterday

Maximum temperature yesterday: 36 °F (at 1:50 PM)
Minimum temperature yesterday: 27 °F (at 1:50 AM)
Average temperature yesterday: 33 °F

Past Weeks' High & Low Weather Summary

 TemperatureHumidityPressure
High54 °F (Dec 13, 3:20 PM)100% (Dec 14, 2:50 PM)30.51 "Hg (Dec 14, 2:50 PM)
Low27 °F (Dec 27, 1:50 AM)38% (Dec 23, 2:20 PM)29.42 "Hg (Dec 27, 3:50 PM)
Average43 °F82%30.09 "Hg
* Reported Dec 13 1:20 AM — Dec 28 1:20 AM, Pforzheim, Weather by CustomWeather, © 2014

Note: Actual official high and low records may vary slightly from our data, if they occured in-between our weather recording intervals... More about our weather records

Advertising

Pforzheim weather history for previous 24 hours

 ConditionsComfort  
Time TempWeatherWind HumidityBarometerVisibility
1:20 AM
Dec 28
32 °FSnow. Ice fog.6 mph100%29.50 "Hg1 mi
12:50 AM32 °FSnow. Ice fog.6 mph100%29.50 "Hg1 mi
12:20 AM32 °FChilly.2 mph100%29.47 "Hg4 mi
11:50 PM
Dec 27
32 °FLight snow. Partly cloudy.2 mph100%29.47 "Hg4 mi
11:20 PM32 °FLight snow. Partly cloudy.2 mph100%29.47 "Hg3 mi
10:50 PM32 °FLight snow. Partly cloudy.2 mph100%29.47 "Hg3 mi
10:20 PM32 °FLight snow. Partly cloudy.3 mph100%29.47 "Hg3 mi
9:50 PM34 °FLight snow. Partly cloudy.3 mph100%29.45 "Hg3 mi
9:20 PM34 °FSnow. Passing clouds.5 mph100%29.45 "Hg1 mi
8:50 PM32 °FLight rain. Passing clouds.1 mph100%29.45 "Hg3 mi
8:20 PM34 °FSnow. Passing clouds.6 mph93%29.42 "Hg1 mi
7:50 PM36 °FLight rain. Partly cloudy.9 mph87%29.42 "HgN/A
7:20 PM36 °FLight rain. Partly cloudy.7 mph87%29.42 "HgN/A
6:50 PM36 °FLight rain. Partly cloudy.8 mph87%29.42 "HgN/A
6:20 PM36 °FLight rain. Partly cloudy.8 mph87%29.42 "HgN/A
5:50 PM36 °FLight rain. Partly cloudy.8 mph87%29.42 "HgN/A
5:20 PM36 °FPartly cloudy.6 mph87%29.42 "HgN/A
4:50 PM36 °FLight rain. Partly cloudy.9 mph93%29.42 "HgN/A
4:20 PM36 °FLight rain. Broken clouds.8 mph93%29.42 "HgN/A
3:50 PM36 °FLight rain. Broken clouds.6 mph93%29.42 "HgN/A
3:20 PM36 °FPartly sunny.5 mph93%29.45 "HgN/A
2:50 PM36 °FPartly sunny.6 mph93%29.45 "HgN/A
2:20 PM36 °FScattered clouds.5 mph93%29.45 "HgN/A
1:50 PM36 °FScattered clouds.5 mph93%29.45 "HgN/A
1:20 PM34 °FLight snow. Partly sunny.6 mph100%29.45 "Hg6 mi
12:50 PM32 °FLight snow. Ice fog.7 mph100%29.45 "Hg2 mi
12:20 PM32 °FLight snow. Ice fog.8 mph100%29.47 "Hg1 mi
11:50 AM32 °FLight snow. Ice fog.10 mph100%29.47 "Hg2 mi
11:20 AM32 °FLight snow. Ice fog.7 mph100%29.50 "Hg1 mi
10:50 AM32 °FLight snow. Ice fog.10 mph100%29.53 "Hg1 mi
10:20 AM32 °FSnow. Ice fog.10 mph100%29.56 "Hg1 mi
9:50 AM32 °FSnow. Ice fog.10 mph100%29.56 "Hg1 mi
9:20 AM32 °FSnow. Ice fog.9 mph100%29.59 "Hg1 mi
8:50 AM30 °FLight snow. Ice fog.8 mph100%29.62 "Hg1 mi
8:20 AM30 °FSnow. Partly sunny.7 mph100%29.65 "Hg1 mi
7:50 AM30 °FSnow. Passing clouds.9 mph100%29.68 "Hg1 mi
7:20 AM32 °FSnow. Passing clouds.9 mph93%29.71 "Hg1 mi
6:50 AM32 °FLight snow. Partly cloudy.8 mph87%29.74 "Hg2 mi
6:20 AM32 °FPartly cloudy.3 mph87%29.77 "HgN/A
5:50 AM32 °FPartly cloudy.5 mph87%29.83 "HgN/A
5:20 AM32 °FPassing clouds.2 mph87%29.86 "HgN/A
4:20 AM32 °FPartly cloudy.5 mph87%29.92 "HgN/A
3:50 AM30 °FPassing clouds.3 mph93%29.98 "HgN/A
3:20 AM32 °FPassing clouds.5 mph87%30.01 "HgN/A
2:50 AM30 °FPassing clouds.5 mph100%30.04 "HgN/A
2:20 AM28 °FSleet. Overcast.1 mph100%30.07 "Hg5 mi
Weather by CustomWeather, © 2014

See weather overviewHow to use our weather pages